DLH44K LEMD-EDDF

Flight info

Callsign DLH44K
Flight time 2h 8m
Altitude 34000
Route PINAR N870 SEGRE N871 TOPTU DCT TOU DCT GAI/N0451F360 DCT MEN DCT NINUN DCT LATAM DCT ETREK DCT LTP DCT SOPLO DCT OMASI DCT KINNI DCT SOSAL DCT KORED DCT BERSU DCT DITON/N0451F350 DCT LADOL/N0454F360 T163 EMPAX EMPAX5B
Aircraft A321/M-SDE3FGHIRWY/LB1

Departure

Time 2026-05-07 17:17
Airport Adolfo Suárez Madrid–Barajas Airport (LEMD)

Arrival

Time 2026-05-07 19:25
Airport Frankfurt Main Airport (EDDF)
Time Latitude Longitude Altitude Speed Heading
2026-05-07 16:39 40.47376 -3.57094 1981 ft 0 kts 187°
2026-05-07 16:58 40.47397 -3.57089 1981 ft 4 kts 201°
2026-05-07 16:59 40.47417 -3.57071 1982 ft 4 kts 244°
2026-05-07 16:59 40.47421 -3.57051 1980 ft 0 kts 280°
2026-05-07 17:04 40.47425 -3.57070 1980 ft 3 kts 287°
2026-05-07 17:04 40.47443 -3.57097 1983 ft 6 kts 316°
2026-05-07 17:04 40.47476 -3.57141 1980 ft 7 kts 310°
2026-05-07 17:04 40.47513 -3.57196 1983 ft 9 kts 316°
2026-05-07 17:05 40.47565 -3.57241 1980 ft 7 kts 360°
2026-05-07 17:05 40.47587 -3.57191 1982 ft 10 kts 65°
2026-05-07 17:05 40.47636 -3.57135 1980 ft 10 kts 357°
2026-05-07 17:05 40.47704 -3.57194 1982 ft 14 kts 320°
2026-05-07 17:06 40.47784 -3.57281 1981 ft 15 kts 321°
2026-05-07 17:06 40.47858 -3.57355 1980 ft 12 kts 324°
2026-05-07 17:06 40.47924 -3.57422 1980 ft 13 kts 321°
2026-05-07 17:06 40.48004 -3.57455 1981 ft 13 kts 11°
2026-05-07 17:07 40.48086 -3.57464 1983 ft 13 kts 324°
2026-05-07 17:07 40.48159 -3.57538 1980 ft 14 kts 322°
2026-05-07 17:07 40.48235 -3.57616 1980 ft 14 kts 322°
2026-05-07 17:07 40.48314 -3.57697 1980 ft 15 kts 322°
2026-05-07 17:08 40.48397 -3.57782 1982 ft 15 kts 322°
2026-05-07 17:08 40.48490 -3.57856 1984 ft 16 kts 333°
2026-05-07 17:08 40.48588 -3.57919 1982 ft 16 kts 340°
2026-05-07 17:08 40.48698 -3.57936 1980 ft 16 kts
2026-05-07 17:09 40.48814 -3.57936 1980 ft 17 kts 360°
2026-05-07 17:09 40.48856 -3.57932 1980 ft 1 kts 33°
2026-05-07 17:09 40.48854 -3.57911 1981 ft 4 kts 103°
2026-05-07 17:09 40.48858 -3.57858 1980 ft 8 kts 85°
2026-05-07 17:10 40.48860 -3.57801 1980 ft 11 kts 89°
2026-05-07 17:10 40.48857 -3.57689 1980 ft 13 kts 102°
2026-05-07 17:10 40.48798 -3.57619 1982 ft 11 kts 155°
2026-05-07 17:10 40.48762 -3.57533 1982 ft 12 kts 88°
2026-05-07 17:11 40.48765 -3.57408 1982 ft 16 kts 89°
2026-05-07 17:11 40.48766 -3.57212 1984 ft 17 kts 90°
2026-05-07 17:11 40.48765 -3.57108 1984 ft 17 kts 90°
2026-05-07 17:11 40.48766 -3.56951 1982 ft 17 kts 89°
2026-05-07 17:12 40.48767 -3.56800 1982 ft 17 kts 89°
2026-05-07 17:12 40.48767 -3.56646 1984 ft 17 kts 90°
2026-05-07 17:12 40.48767 -3.56485 1983 ft 18 kts 90°
2026-05-07 17:12 40.48769 -3.56325 1984 ft 16 kts 89°
2026-05-07 17:13 40.48770 -3.56189 1982 ft 11 kts 84°
2026-05-07 17:13 40.48829 -3.56141 1980 ft 11 kts 359°
2026-05-07 17:13 40.48922 -3.56144 1980 ft 16 kts
2026-05-07 17:13 40.49039 -3.56142 1981 ft 17 kts
2026-05-07 17:14 40.49160 -3.56144 1982 ft 18 kts 359°
2026-05-07 17:14 40.49277 -3.56145 1980 ft 15 kts
2026-05-07 17:14 40.49369 -3.56145 1980 ft 11 kts
2026-05-07 17:14 40.49412 -3.56089 1984 ft 9 kts 84°
2026-05-07 17:15 40.49420 -3.56002 1982 ft 10 kts 65°
2026-05-07 17:15 40.49457 -3.55940 1980 ft 7 kts 52°
2026-05-07 17:15 40.49488 -3.55887 1980 ft 8 kts 52°
2026-05-07 17:15 40.49508 -3.55815 1980 ft 9 kts 101°
2026-05-07 17:16 40.49461 -3.55754 1982 ft 14 kts 143°
2026-05-07 17:16 40.49229 -3.55518 1981 ft 77 kts 142°
2026-05-07 17:16 40.48634 -3.54912 1981 ft 138 kts 142°
2026-05-07 17:16 40.47748 -3.54008 2076 ft 176 kts 142°
2026-05-07 17:17 40.46776 -3.53019 2635 ft 182 kts 140°
2026-05-07 17:17 40.45753 -3.51976 3212 ft 191 kts 139°
2026-05-07 17:17 40.44667 -3.50867 3476 ft 211 kts 140°
2026-05-07 17:17 40.43460 -3.49604 3738 ft 228 kts 138°
2026-05-07 17:18 40.42521 -3.47938 4321 ft 231 kts 118°
2026-05-07 17:18 40.41811 -3.46030 4970 ft 234 kts 116°
2026-05-07 17:18 40.41125 -3.44089 5700 ft 236 kts 116°
2026-05-07 17:18 40.40431 -3.42122 6388 ft 239 kts 116°
2026-05-07 17:19 40.39723 -3.40134 7025 ft 242 kts 116°
2026-05-07 17:19 40.39269 -3.37911 7289 ft 267 kts 92°
2026-05-07 17:19 40.39760 -3.35494 7661 ft 285 kts 58°
2026-05-07 17:19 40.41084 -3.33564 8258 ft 291 kts 44°
2026-05-07 17:20 40.42554 -3.31714 8915 ft 295 kts 44°
2026-05-07 17:20 40.44042 -3.29826 9601 ft 299 kts 44°
2026-05-07 17:20 40.45545 -3.27909 10223 ft 304 kts 44°
2026-05-07 17:20 40.47110 -3.25903 10363 ft 326 kts 44°
2026-05-07 17:21 40.48783 -3.23753 10507 ft 346 kts 44°
2026-05-07 17:21 40.50551 -3.21482 10629 ft 365 kts 44°
2026-05-07 17:21 40.52392 -3.19116 11022 ft 374 kts 44°
2026-05-07 17:21 40.54260 -3.16718 11569 ft 377 kts 44°
2026-05-07 17:22 40.56143 -3.14299 12145 ft 380 kts 44°
2026-05-07 17:22 40.58046 -3.11855 12719 ft 383 kts 44°
2026-05-07 17:22 40.59958 -3.09394 13280 ft 386 kts 44°
2026-05-07 17:22 40.61886 -3.06906 13826 ft 389 kts 44°
2026-05-07 17:23 40.63828 -3.04397 14310 ft 392 kts 44°
2026-05-07 17:23 40.65788 -3.01866 14775 ft 396 kts 44°
2026-05-07 17:23 40.67765 -2.99314 15246 ft 400 kts 44°
2026-05-07 17:23 40.69757 -2.96745 15777 ft 402 kts 44°
2026-05-07 17:24 40.71765 -2.94148 16262 ft 405 kts 44°
2026-05-07 17:24 40.73786 -2.91528 16760 ft 408 kts 44°
2026-05-07 17:24 40.75812 -2.88896 17213 ft 411 kts 44°
2026-05-07 17:24 40.77853 -2.86242 17668 ft 414 kts 44°
2026-05-07 17:25 40.79907 -2.83569 18115 ft 417 kts 44°
2026-05-07 17:25 40.81974 -2.80878 18529 ft 419 kts 44°
2026-05-07 17:25 40.84061 -2.78164 18925 ft 422 kts 44°
2026-05-07 17:25 40.86162 -2.75432 19320 ft 424 kts 44°
2026-05-07 17:26 40.88269 -2.72693 19713 ft 426 kts 44°
2026-05-07 17:26 40.90379 -2.69943 20138 ft 428 kts 44°
2026-05-07 17:26 40.92502 -2.67172 20544 ft 430 kts 44°
2026-05-07 17:26 40.94607 -2.64417 20933 ft 432 kts 45°
2026-05-07 17:27 40.96747 -2.61611 21314 ft 435 kts 45°
2026-05-07 17:27 40.98841 -2.58707 21700 ft 437 kts 53°
2026-05-07 17:27 41.00336 -2.55228 22057 ft 437 kts 71°
2026-05-07 17:27 41.00968 -2.51320 22422 ft 436 kts 89°
2026-05-07 17:28 41.00967 -2.47301 22784 ft 437 kts 90°
2026-05-07 17:28 41.01302 -2.43280 23149 ft 441 kts 79°
2026-05-07 17:28 41.02307 -2.39433 23491 ft 446 kts 64°
2026-05-07 17:28 41.04053 -2.36025 23791 ft 449 kts 48°
2026-05-07 17:29 41.06414 -2.33317 24066 ft 452 kts 36°
2026-05-07 17:29 41.08948 -2.30823 24365 ft 454 kts 37°
2026-05-07 17:29 41.11424 -2.28225 24670 ft 456 kts 39°
2026-05-07 17:29 41.13885 -2.25543 24966 ft 458 kts 40°
2026-05-07 17:30 41.16340 -2.22830 25259 ft 461 kts 40°
2026-05-07 17:30 41.18813 -2.20109 25536 ft 464 kts 40°
2026-05-07 17:30 41.21323 -2.17384 25814 ft 466 kts 39°
2026-05-07 17:30 41.23857 -2.14663 26095 ft 469 kts 39°
2026-05-07 17:31 41.26410 -2.11944 26377 ft 471 kts 39°
2026-05-07 17:31 41.28978 -2.09216 26638 ft 473 kts 39°
2026-05-07 17:31 41.31559 -2.06475 26905 ft 476 kts 39°
2026-05-07 17:31 41.34149 -2.03713 27165 ft 478 kts 39°
2026-05-07 17:32 41.36746 -2.00928 27379 ft 481 kts 39°
2026-05-07 17:32 41.39360 -1.98115 27614 ft 483 kts 39°
2026-05-07 17:32 41.41981 -1.95293 27840 ft 485 kts 39°
2026-05-07 17:32 41.44609 -1.92464 28063 ft 487 kts 38°
2026-05-07 17:33 41.47252 -1.89622 28257 ft 489 kts 39°
2026-05-07 17:33 41.49875 -1.86799 28456 ft 491 kts 39°
2026-05-07 17:33 41.52536 -1.83930 28722 ft 492 kts 39°
2026-05-07 17:33 41.55195 -1.81058 29005 ft 492 kts 39°
2026-05-07 17:34 41.57854 -1.78185 29286 ft 492 kts 39°
2026-05-07 17:34 41.60515 -1.75307 29570 ft 492 kts 39°
2026-05-07 17:34 41.63174 -1.72421 29871 ft 492 kts 39°
2026-05-07 17:34 41.65830 -1.69535 30137 ft 492 kts 39°
2026-05-07 17:35 41.68484 -1.66650 30381 ft 491 kts 39°
2026-05-07 17:35 41.71132 -1.63770 30642 ft 490 kts 38°
2026-05-07 17:35 41.73784 -1.60884 30899 ft 490 kts 38°
2026-05-07 17:35 41.76428 -1.58006 31161 ft 489 kts 38°
2026-05-07 17:36 41.79061 -1.55138 31487 ft 486 kts 38°
2026-05-07 17:36 41.81677 -1.52282 31792 ft 484 kts 39°
2026-05-07 17:36 41.84257 -1.49457 31971 ft 486 kts 39°
2026-05-07 17:36 41.86875 -1.46587 32138 ft 487 kts 39°
2026-05-07 17:37 41.89497 -1.43709 32356 ft 487 kts 39°
2026-05-07 17:37 41.92118 -1.40833 32596 ft 486 kts 39°
2026-05-07 17:37 41.94723 -1.37973 32837 ft 486 kts 39°
2026-05-07 17:37 41.97340 -1.35094 33092 ft 485 kts 39°
2026-05-07 17:38 41.99944 -1.32224 33365 ft 484 kts 39°
2026-05-07 17:38 42.02540 -1.29360 33609 ft 484 kts 39°
2026-05-07 17:38 42.05140 -1.26497 33853 ft 483 kts 38°
2026-05-07 17:38 42.07746 -1.23624 33914 ft 483 kts 39°
2026-05-07 17:39 42.12936 -1.17881 33925 ft 481 kts 39°
2026-05-07 17:39 42.18098 -1.12160 33936 ft 482 kts 39°
2026-05-07 17:40 42.23297 -1.06400 33933 ft 483 kts 39°
2026-05-07 17:40 42.28485 -1.00618 33935 ft 483 kts 39°
2026-05-07 17:41 42.33664 -0.94820 33937 ft 484 kts 39°
2026-05-07 17:41 42.38853 -0.89018 33964 ft 484 kts 39°
2026-05-07 17:42 42.43801 -0.82853 33968 ft 483 kts 51°
2026-05-07 17:42 42.47919 -0.75668 33972 ft 483 kts 53°
2026-05-07 17:43 42.52030 -0.68458 33976 ft 483 kts 53°
2026-05-07 17:43 42.56113 -0.61279 33981 ft 484 kts 53°
2026-05-07 17:44 42.60215 -0.54021 33987 ft 484 kts 53°
2026-05-07 17:44 42.64302 -0.46763 33996 ft 484 kts 53°
2026-05-07 17:45 42.68393 -0.39485 33995 ft 484 kts 53°
2026-05-07 17:45 42.72480 -0.32200 33992 ft 484 kts 53°
2026-05-07 17:46 42.76573 -0.24904 34003 ft 485 kts 53°
2026-05-07 17:46 42.80666 -0.17612 33996 ft 485 kts 53°
2026-05-07 17:47 42.84903 -0.10462 33997 ft 485 kts 51°
2026-05-07 17:47 42.89247 -0.03406 33988 ft 485 kts 51°
2026-05-07 17:48 42.93522 0.03626 33984 ft 484 kts 51°
2026-05-07 17:48 42.97772 0.10753 33993 ft 483 kts 52°
2026-05-07 17:49 43.01998 0.17891 33999 ft 483 kts 52°
2026-05-07 17:49 43.06233 0.25012 33989 ft 483 kts 52°
2026-05-07 17:50 43.10469 0.32135 33987 ft 482 kts 52°
2026-05-07 17:50 43.14699 0.39269 33956 ft 482 kts 52°
2026-05-07 17:51 43.18915 0.46416 33953 ft 482 kts 52°
2026-05-07 17:51 43.23130 0.53571 33967 ft 483 kts 52°
2026-05-07 17:52 43.27345 0.60736 33966 ft 482 kts 52°
2026-05-07 17:52 43.31550 0.67912 33964 ft 482 kts 52°
2026-05-07 17:53 43.35754 0.75105 33960 ft 482 kts 52°
2026-05-07 17:53 43.39959 0.82303 33947 ft 482 kts 52°
2026-05-07 17:54 43.44151 0.89496 33960 ft 482 kts 52°
2026-05-07 17:54 43.48304 0.96657 33963 ft 482 kts 52°
2026-05-07 17:55 43.52503 1.03916 33967 ft 481 kts 52°
2026-05-07 17:55 43.56643 1.11097 33963 ft 481 kts 52°
2026-05-07 17:56 43.60811 1.18317 33954 ft 481 kts 52°
2026-05-07 17:56 43.64983 1.25565 33966 ft 482 kts 52°
2026-05-07 17:57 43.68469 1.31644 33967 ft 482 kts 53°
2026-05-07 17:57 43.73161 1.40238 33968 ft 482 kts 55°
2026-05-07 17:58 43.76452 1.46535 33969 ft 482 kts 55°
2026-05-07 17:58 43.80365 1.53996 33948 ft 482 kts 55°
2026-05-07 17:59 43.84342 1.61493 33957 ft 483 kts 54°
2026-05-07 17:59 43.88326 1.68993 33966 ft 484 kts 54°
2026-05-07 18:00 43.92307 1.76524 33970 ft 484 kts 54°
2026-05-07 18:00 43.96272 1.84067 33976 ft 484 kts 55°
2026-05-07 18:01 44.00140 1.91733 33963 ft 484 kts 56°
2026-05-07 18:01 44.03937 1.99457 33975 ft 484 kts 56°
2026-05-07 18:02 44.09647 2.11053 33979 ft 484 kts 56°
2026-05-07 18:03 44.13468 2.18763 33985 ft 484 kts 56°
2026-05-07 18:03 44.17292 2.26484 33985 ft 484 kts 56°
2026-05-07 18:04 44.21106 2.34230 33979 ft 484 kts 56°
2026-05-07 18:04 44.24887 2.41939 33980 ft 485 kts 56°
2026-05-07 18:05 44.28687 2.49710 33981 ft 485 kts 56°
2026-05-07 18:05 44.32493 2.57509 33987 ft 485 kts 56°
2026-05-07 18:06 44.36295 2.65314 33989 ft 485 kts 56°
2026-05-07 18:06 44.40085 2.73122 33982 ft 486 kts 56°
2026-05-07 18:07 44.43884 2.80969 33981 ft 487 kts 56°
2026-05-07 18:07 44.47675 2.88817 33982 ft 487 kts 56°
2026-05-07 18:08 44.51452 2.96647 33982 ft 487 kts 56°
2026-05-07 18:08 44.55244 3.04528 33985 ft 488 kts 56°
2026-05-07 18:09 44.59032 3.12440 33986 ft 488 kts 56°
2026-05-07 18:09 44.62707 3.20448 33987 ft 489 kts 59°
2026-05-07 18:10 44.66046 3.28777 33988 ft 489 kts 62°
2026-05-07 18:10 44.69258 3.37184 33990 ft 489 kts 62°
2026-05-07 18:11 44.72522 3.45512 33995 ft 489 kts 61°
2026-05-07 18:11 44.75893 3.53909 33995 ft 489 kts 60°
2026-05-07 18:12 44.79207 3.62199 33998 ft 489 kts 61°
2026-05-07 18:12 44.82544 3.70619 33998 ft 489 kts 61°
2026-05-07 18:13 44.85832 3.78951 34000 ft 489 kts 61°
2026-05-07 18:13 44.89131 3.87347 33989 ft 489 kts 61°
2026-05-07 18:14 44.92427 3.95759 33993 ft 490 kts 61°
2026-05-07 18:14 44.95722 4.04180 34004 ft 490 kts 61°
2026-05-07 18:15 44.99007 4.12611 34008 ft 489 kts 61°
2026-05-07 18:15 45.02280 4.21043 34000 ft 489 kts 61°
2026-05-07 18:16 45.05527 4.29423 34003 ft 489 kts 61°
2026-05-07 18:16 45.08792 4.37873 34003 ft 490 kts 61°
2026-05-07 18:17 45.12051 4.46337 34013 ft 489 kts 62°
2026-05-07 18:17 45.15295 4.54809 34015 ft 489 kts 62°
2026-05-07 18:18 45.18536 4.63280 34001 ft 489 kts 62°
2026-05-07 18:18 45.21774 4.71758 34009 ft 488 kts 62°
2026-05-07 18:19 45.25002 4.80254 34010 ft 488 kts 62°
2026-05-07 18:19 45.28221 4.88749 34022 ft 488 kts 62°
2026-05-07 18:20 45.31416 4.97175 34019 ft 487 kts 62°
2026-05-07 18:20 45.34624 5.05660 34009 ft 487 kts 62°
2026-05-07 18:21 45.37805 5.14148 34015 ft 486 kts 62°
2026-05-07 18:21 45.40984 5.22641 34019 ft 486 kts 62°
2026-05-07 18:22 45.44157 5.31141 34020 ft 486 kts 62°
2026-05-07 18:22 45.47339 5.39627 34024 ft 486 kts 59°
2026-05-07 18:23 45.51480 5.47159 34009 ft 482 kts 41°
2026-05-07 18:23 45.56472 5.53540 34004 ft 482 kts 40°
2026-05-07 18:24 45.61443 5.59883 34002 ft 482 kts 40°
2026-05-07 18:24 45.66435 5.66289 33999 ft 483 kts 40°
2026-05-07 18:25 45.71431 5.72716 34001 ft 483 kts 40°
2026-05-07 18:25 45.76431 5.79152 34001 ft 483 kts 40°
2026-05-07 18:26 45.81434 5.85578 34004 ft 483 kts 40°
2026-05-07 18:26 45.86441 5.92022 34001 ft 483 kts 40°
2026-05-07 18:27 45.91430 5.98474 33993 ft 483 kts 40°
2026-05-07 18:27 45.96421 6.04940 33993 ft 483 kts 40°
2026-05-07 18:28 46.01408 6.11416 34014 ft 483 kts 39°
2026-05-07 18:28 46.06351 6.17852 34008 ft 482 kts 40°
2026-05-07 18:29 46.11328 6.24441 34024 ft 483 kts 41°
2026-05-07 18:29 46.16089 6.31201 34024 ft 483 kts 43°
2026-05-07 18:30 46.20818 6.38084 34024 ft 483 kts 43°
2026-05-07 18:30 46.25583 6.44929 34020 ft 482 kts 42°
2026-05-07 18:31 46.30362 6.51746 34026 ft 482 kts 42°
2026-05-07 18:31 46.35138 6.58579 34031 ft 483 kts 42°
2026-05-07 18:32 46.39900 6.65420 34044 ft 483 kts 42°
2026-05-07 18:32 46.44667 6.72289 34037 ft 483 kts 42°
2026-05-07 18:33 46.49417 6.79173 34043 ft 483 kts 42°
2026-05-07 18:33 46.54139 6.86017 34046 ft 483 kts 42°
2026-05-07 18:34 46.58579 6.93388 34035 ft 485 kts 49°
2026-05-07 18:34 46.62816 7.01044 34043 ft 486 kts 49°
2026-05-07 18:35 46.67059 7.08710 34045 ft 486 kts 49°
2026-05-07 18:35 46.71302 7.16373 34047 ft 486 kts 49°
2026-05-07 18:36 46.75516 7.24010 34052 ft 486 kts 49°
2026-05-07 18:36 46.79743 7.31718 34036 ft 486 kts 49°
2026-05-07 18:37 46.83958 7.39418 34020 ft 487 kts 49°
2026-05-07 18:37 46.88203 7.47164 34018 ft 487 kts 49°
2026-05-07 18:38 46.92423 7.54918 34047 ft 487 kts 49°
2026-05-07 18:38 46.96635 7.62688 34065 ft 487 kts 49°
2026-05-07 18:39 47.00839 7.70467 34059 ft 486 kts 49°
2026-05-07 18:39 47.05009 7.78202 34054 ft 486 kts 49°
2026-05-07 18:40 47.09188 7.85991 34053 ft 486 kts 49°
2026-05-07 18:40 47.13354 7.93807 34078 ft 486 kts 52°
2026-05-07 18:41 47.16995 8.02176 34071 ft 486 kts 56°
2026-05-07 18:41 47.20585 8.10591 34068 ft 485 kts 56°
2026-05-07 18:42 47.24158 8.19006 34066 ft 484 kts 56°
2026-05-07 18:42 47.27788 8.27353 34067 ft 482 kts 50°
2026-05-07 18:43 47.32489 8.34251 34071 ft 474 kts 32°
2026-05-07 18:43 47.38174 8.38934 34065 ft 467 kts 21°
2026-05-07 18:44 47.43052 8.42372 34068 ft 466 kts 21°
2026-05-07 18:44 47.48899 8.46525 34053 ft 466 kts 22°
2026-05-07 18:45 47.54705 8.50663 34060 ft 466 kts 22°
2026-05-07 18:45 47.60552 8.54818 34064 ft 465 kts 22°
2026-05-07 18:46 47.66384 8.58981 34065 ft 465 kts 22°
2026-05-07 18:46 47.72292 8.62800 34085 ft 458 kts 10°
2026-05-07 18:47 47.78507 8.64866 34086 ft 457 kts
2026-05-07 18:47 47.84713 8.66865 34085 ft 456 kts
2026-05-07 18:48 47.90928 8.68823 34099 ft 456 kts
2026-05-07 18:48 47.97135 8.70822 34095 ft 456 kts
2026-05-07 18:49 48.03290 8.72846 34096 ft 455 kts
2026-05-07 18:49 48.09482 8.74886 34094 ft 455 kts
2026-05-07 18:50 48.15665 8.76902 34104 ft 454 kts
2026-05-07 18:50 48.21834 8.78905 34102 ft 453 kts
2026-05-07 18:51 48.27999 8.80928 34103 ft 453 kts
2026-05-07 18:51 48.34153 8.82960 34110 ft 452 kts
2026-05-07 18:52 48.40301 8.84993 34111 ft 452 kts
2026-05-07 18:52 48.46442 8.87014 34106 ft 452 kts
2026-05-07 18:53 48.52582 8.89042 34088 ft 451 kts
2026-05-07 18:53 48.58725 8.91092 34078 ft 452 kts
2026-05-07 18:54 48.64877 8.93154 34070 ft 453 kts
2026-05-07 18:54 48.71046 8.95202 34031 ft 452 kts
2026-05-07 18:54 48.74107 8.96226 33427 ft 449 kts
2026-05-07 18:55 48.77143 8.97245 32689 ft 448 kts
2026-05-07 18:55 48.80183 8.98265 31939 ft 447 kts
2026-05-07 18:55 48.83227 8.99286 30978 ft 447 kts
2026-05-07 18:55 48.86251 9.00304 29211 ft 446 kts
2026-05-07 18:56 48.89299 9.01328 27448 ft 461 kts 10°
2026-05-07 18:56 48.92449 9.02386 26261 ft 465 kts 10°
2026-05-07 18:56 48.95655 9.03465 25214 ft 463 kts 10°
2026-05-07 18:56 48.98695 9.04495 24243 ft 445 kts 10°
2026-05-07 18:57 49.01676 9.05512 23262 ft 435 kts 10°
2026-05-07 18:57 49.04627 9.06520 22630 ft 435 kts 10°
2026-05-07 18:57 49.07567 9.07524 22012 ft 430 kts 10°
2026-05-07 18:57 49.10472 9.08512 21403 ft 426 kts 10°
2026-05-07 18:58 49.13353 9.09488 20813 ft 423 kts 10°
2026-05-07 18:58 49.16219 9.10457 20111 ft 421 kts 10°
2026-05-07 18:58 49.19105 9.11435 18963 ft 429 kts 10°
2026-05-07 18:58 49.22019 9.12429 18028 ft 425 kts 10°
2026-05-07 18:59 49.24849 9.13397 16884 ft 407 kts 11°
2026-05-07 18:59 49.27507 9.14312 16653 ft 380 kts 11°
2026-05-07 18:59 49.30052 9.15188 16198 ft 372 kts 11°
2026-05-07 18:59 49.32565 9.16048 15692 ft 368 kts 11°
2026-05-07 19:00 49.35022 9.16887 15197 ft 365 kts 11°
2026-05-07 19:00 49.37491 9.17732 14683 ft 362 kts 11°
2026-05-07 19:00 49.39937 9.18571 14171 ft 359 kts 11°
2026-05-07 19:00 49.42366 9.19405 13613 ft 356 kts 11°
2026-05-07 19:01 49.44774 9.20233 13073 ft 353 kts 11°
2026-05-07 19:01 49.47160 9.21057 12540 ft 350 kts 11°
2026-05-07 19:01 49.49529 9.21881 12011 ft 347 kts 11°
2026-05-07 19:01 49.51879 9.22697 11479 ft 345 kts 11°
2026-05-07 19:02 49.54213 9.23505 10970 ft 341 kts 11°
2026-05-07 19:02 49.56477 9.24291 10822 ft 326 kts 11°
2026-05-07 19:02 49.58640 9.25045 10666 ft 312 kts 11°
2026-05-07 19:02 49.60658 9.25749 10531 ft 288 kts 11°
2026-05-07 19:03 49.62571 9.26420 10402 ft 272 kts 11°
2026-05-07 19:03 49.64359 9.27043 10276 ft 262 kts 11°
2026-05-07 19:03 49.66116 9.27650 10045 ft 257 kts 11°
2026-05-07 19:03 49.67857 9.28250 9724 ft 255 kts 11°
2026-05-07 19:04 49.69588 9.28849 9395 ft 254 kts 11°
2026-05-07 19:04 49.71303 9.29449 9071 ft 252 kts 11°
2026-05-07 19:04 49.73010 9.30057 8743 ft 251 kts 11°
2026-05-07 19:04 49.74702 9.30667 8437 ft 249 kts 11°
2026-05-07 19:05 49.76385 9.31276 8111 ft 247 kts 11°
2026-05-07 19:05 49.78055 9.31882 7781 ft 246 kts 11°
2026-05-07 19:05 49.79721 9.32482 7467 ft 244 kts 11°
2026-05-07 19:05 49.81372 9.33078 7172 ft 242 kts 11°
2026-05-07 19:06 49.83010 9.33508 7079 ft 238 kts 358°
2026-05-07 19:06 49.86047 9.31806 7078 ft 235 kts 317°
2026-05-07 19:06 49.87077 9.29858 7074 ft 235 kts 297°
2026-05-07 19:07 49.87644 9.27489 7070 ft 236 kts 286°
2026-05-07 19:07 49.88109 9.25029 7073 ft 244 kts 286°
2026-05-07 19:07 49.88599 9.22462 7074 ft 246 kts 287°
2026-05-07 19:07 49.89083 9.19921 7078 ft 246 kts 287°
2026-05-07 19:08 49.89560 9.17417 7076 ft 246 kts 287°
2026-05-07 19:08 49.90047 9.14862 7081 ft 246 kts 287°
2026-05-07 19:08 49.90531 9.12317 7070 ft 246 kts 287°
2026-05-07 19:08 49.91015 9.09766 7070 ft 246 kts 287°
2026-05-07 19:09 49.91498 9.07217 7070 ft 247 kts 287°
2026-05-07 19:09 49.91982 9.04657 7074 ft 247 kts 287°
2026-05-07 19:09 49.92469 9.02091 7074 ft 247 kts 287°
2026-05-07 19:09 49.92960 8.99528 7077 ft 247 kts 287°
2026-05-07 19:10 49.93451 8.96973 7078 ft 247 kts 287°
2026-05-07 19:10 49.93941 8.94420 7072 ft 247 kts 287°
2026-05-07 19:10 49.94423 8.91898 7082 ft 247 kts 287°
2026-05-07 19:10 49.94911 8.89337 7083 ft 247 kts 287°
2026-05-07 19:11 49.95398 8.86782 7074 ft 247 kts 287°
2026-05-07 19:11 49.95884 8.84218 7082 ft 247 kts 287°
2026-05-07 19:11 49.96367 8.81655 7086 ft 247 kts 287°
2026-05-07 19:11 49.96848 8.79098 7079 ft 247 kts 287°
2026-05-07 19:12 49.97333 8.76534 7086 ft 247 kts 287°
2026-05-07 19:12 49.97773 8.73961 7080 ft 247 kts 280°
2026-05-07 19:12 49.97861 8.71299 7091 ft 248 kts 266°
2026-05-07 19:12 49.97527 8.68673 7090 ft 249 kts 252°
2026-05-07 19:13 49.96917 8.66150 7082 ft 250 kts 250°
2026-05-07 19:13 49.96305 8.63623 7090 ft 250 kts 251°
2026-05-07 19:13 49.95703 8.61121 7081 ft 250 kts 251°
2026-05-07 19:13 49.95097 8.58601 7090 ft 250 kts 251°
2026-05-07 19:14 49.94488 8.56074 7088 ft 250 kts 251°
2026-05-07 19:14 49.93878 8.53548 7082 ft 249 kts 251°
2026-05-07 19:14 49.93270 8.51031 7076 ft 249 kts 251°
2026-05-07 19:14 49.92660 8.48511 7082 ft 249 kts 251°
2026-05-07 19:15 49.92051 8.45987 7071 ft 249 kts 251°
2026-05-07 19:15 49.91446 8.43470 6905 ft 247 kts 251°
2026-05-07 19:15 49.90860 8.41038 6751 ft 236 kts 251°
2026-05-07 19:15 49.90287 8.38667 6349 ft 234 kts 251°
2026-05-07 19:16 49.89716 8.36312 5917 ft 233 kts 251°
2026-05-07 19:16 49.89147 8.33958 5480 ft 233 kts 251°
2026-05-07 19:16 49.88581 8.31616 5087 ft 231 kts 251°
2026-05-07 19:16 49.88014 8.29275 4967 ft 233 kts 251°
2026-05-07 19:17 49.87442 8.26915 4834 ft 234 kts 251°
2026-05-07 19:17 49.86878 8.24589 4705 ft 234 kts 251°
2026-05-07 19:17 49.86298 8.22202 4577 ft 234 kts 251°
2026-05-07 19:17 49.85732 8.19878 4433 ft 233 kts 251°
2026-05-07 19:18 49.85185 8.17517 4313 ft 233 kts 257°
2026-05-07 19:18 49.85227 8.15058 4175 ft 230 kts 290°
2026-05-07 19:18 49.86119 8.13061 4064 ft 228 kts 323°
2026-05-07 19:18 49.87563 8.12160 3986 ft 226 kts 356°
2026-05-07 19:19 49.89082 8.12659 3997 ft 227 kts 29°
2026-05-07 19:19 49.90325 8.14185 4004 ft 229 kts 42°
2026-05-07 19:19 49.91474 8.15898 4001 ft 229 kts 43°
2026-05-07 19:19 49.92597 8.17615 3993 ft 219 kts 44°
2026-05-07 19:20 49.93635 8.19212 3990 ft 202 kts 44°
2026-05-07 19:20 49.94619 8.20729 3996 ft 199 kts 45°
2026-05-07 19:20 49.95316 8.22561 4003 ft 200 kts 68°
2026-05-07 19:20 49.95782 8.24522 3988 ft 185 kts 68°
2026-05-07 19:21 49.96225 8.26358 3948 ft 180 kts 68°
2026-05-07 19:21 49.96663 8.28162 3759 ft 178 kts 67°
2026-05-07 19:21 49.97097 8.29955 3534 ft 176 kts 68°
2026-05-07 19:21 49.97522 8.31706 3307 ft 175 kts 68°
2026-05-07 19:22 49.97948 8.33468 3064 ft 174 kts 68°
2026-05-07 19:22 49.98373 8.35227 2828 ft 173 kts 68°
2026-05-07 19:22 49.98793 8.36964 2597 ft 172 kts 68°
2026-05-07 19:22 49.99212 8.38698 2362 ft 171 kts 68°
2026-05-07 19:23 49.99630 8.40428 2128 ft 170 kts 68°
2026-05-07 19:23 50.00045 8.42151 1903 ft 175 kts 68°
2026-05-07 19:23 50.00485 8.43977 1664 ft 175 kts 69°
2026-05-07 19:23 50.00888 8.45655 1431 ft 157 kts 69°
2026-05-07 19:24 50.01251 8.47164 1217 ft 145 kts 69°
2026-05-07 19:24 50.01599 8.48609 1024 ft 141 kts 69°
2026-05-07 19:24 50.01929 8.49983 841 ft 138 kts 69°
2026-05-07 19:24 50.02263 8.51374 660 ft 136 kts 69°
2026-05-07 19:25 50.02593 8.52746 475 ft 135 kts 69°
2026-05-07 19:25 50.02917 8.54087 353 ft 130 kts 69°
2026-05-07 19:25 50.03186 8.55223 349 ft 90 kts 70°
2026-05-07 19:25 50.03346 8.55890 350 ft 45 kts 69°
2026-05-07 19:26 50.03436 8.56213 356 ft 24 kts 55°
2026-05-07 19:26 50.03548 8.56386 353 ft 14 kts 39°
2026-05-07 19:26 50.03623 8.56482 350 ft 14 kts 40°
2026-05-07 19:26 50.03681 8.56558 352 ft 9 kts 39°
2026-05-07 19:27 50.03732 8.56621 357 ft 9 kts 33°
2026-05-07 19:27 50.03796 8.56654 353 ft 10 kts 11°
2026-05-07 19:27 50.03865 8.56674 355 ft 10 kts 11°
2026-05-07 19:27 50.03916 8.56690 362 ft 0 kts 11°
2026-05-07 19:28 50.03925 8.56693 362 ft 5 kts 11°
2026-05-07 19:28 50.04000 8.56717 356 ft 15 kts 12°
2026-05-07 19:29 50.04094 8.56745 362 ft 11 kts 11°
2026-05-07 19:29 50.04171 8.56769 358 ft 11 kts 12°
2026-05-07 19:29 50.04233 8.56789 359 ft 9 kts 12°
2026-05-07 19:29 50.04300 8.56811 360 ft 10 kts 12°
2026-05-07 19:30 50.04350 8.56828 360 ft 11 kts 12°
2026-05-07 19:30 50.04458 8.56858 359 ft 10 kts 11°
2026-05-07 19:30 50.04492 8.56870 359 ft 5 kts 12°
2026-05-07 19:30 50.04529 8.56882 359 ft 6 kts 12°
2026-05-07 19:31 50.04580 8.56899 364 ft 10 kts 12°
2026-05-07 19:31 50.04619 8.56914 359 ft 4 kts 15°
2026-05-07 19:31 50.04639 8.56924 356 ft 3 kts 18°
2026-05-07 19:31 50.04665 8.56927 356 ft 4 kts 350°
2026-05-07 19:32 50.04687 8.56900 363 ft 3 kts 309°
2026-05-07 19:32 50.04695 8.56876 364 ft 1 kts 294°
2026-05-07 19:32 50.04701 8.56856 361 ft 2 kts 294°
2026-05-07 19:32 50.04705 8.56843 362 ft 1 kts 294°
2026-05-07 19:33 50.04705 8.56842 362 ft 0 kts 294°